Regional Weather Roundup
Issued by NWS

Home | Current Version | Previous Version | Graphics & Text | Print | Product List | Glossary Off
Versions: 1 2 3 4 5 6 7 8 9 10 11 12 13 14 15 16 17 18 19 20 21 22 23 24 25 26 27 28 29 30 31 32 33 34 35 36 37 38 39 40 41 42 43 44 45 46 47 48 49 50

000
ASUS45 KBOU 230307
RWRCO

WEATHER ROUNDUP FOR COLORADO
NATIONAL WEATHER SERVICE DENVER/BOULDER CO
800 PM MST MON DEC 22 2014

NOTE: "FAIR" INDICATES FEW OR NO CLOUDS BELOW 12000 FEET WITH NO
SIGNIFICANT WEATHER AND/OR OBSTRUCTIONS TO VISIBILITY.

COZ001>005-013-030-031-230400-
...NORTHWEST COLORADO...

CITY           SKY/WX    TMP DP  RH WIND       PRES   REMARKS
CRAIG          MOCLDY    25  18  74 N3        29.93R
HAYDEN         MOCLDY    21  18  86 W5        29.91R WCI  15
MEEKER         CLOUDY    27  18  69 N8        29.93R WCI  19
MOUNT WERNER   NOT AVBL
STEAMBOAT SPGS MOCLDY    20  18  92 NE3       29.89R
WALDEN         MOCLDY    18  12  79 NW25      29.82R WCI  -1
$$

COZ006>008-011-230400-
...WEST CENTRAL VALLEYS...

CITY           SKY/WX    TMP DP  RH WIND       PRES   REMARKS
GRAND JUNCTION MOCLDY    33  27  78 NW7       29.92R WCI  27
MONTROSE       CLOUDY    33  25  72 NW9       29.93R WCI  25
EAGLE          CLOUDY    25  21  86 S3        29.91R
RIFLE          PTCLDY    26  22  84 NE8       29.91R WCI  18
DELTA          CLOUDY    38  20  48 N6        29.92R
NUCLA          CLOUDY    36  27  69 NW15      29.95R
$$

COZ017>023-064>068-230400-
...SOUTHWEST COLORADO...

CITY           SKY/WX    TMP DP  RH WIND       PRES   REMARKS
DURANGO        MOCLDY    30  29  96 W10       29.78R WCI  21
CORTEZ         CLOUDY    36  27  69 N18G29    29.86R
PAGOSA SPRINGS CLOUDY    26  26 100 CALM      29.79R FOG
TELLURIDE      CLOUDY    22  16  79 NW12G23   29.86R WCI  10
WOLF CREEK PAS LGT SNOW  10   9  92 MISG      29.76S
$$

COZ009-010-012-014-032>034-037-058>063-230400-
...CENTRAL COLORADO...

CITY           SKY/WX    TMP DP  RH WIND       PRES   REMARKS
ASPEN          LGT SNOW  21  17  84 N8        29.83R FOG     WCI  11
BUENA VISTA    CLOUDY    22  13  68 NW14      29.81R WCI   9
COPPER MTN     CLOUDY     9   1  72 W17G28    29.72R WCI -10
BERTHOUD PASS  NOT AVBL
COTTONWOOD PAS LGT SNOW  19  14  79 CALM      29.76R
GUNNISON       PTCLDY    23  10  58 NW5       29.85R WCI  17
KREMMLING      MOCLDY    21  12  68 W6        29.87R WCI  14
LEADVILLE      FLURRIES  11   6  81 N12       29.76R WCI  -3
SALIDA         CLOUDY    26  18  71 NW3       29.88R
SUNLIGHT       CLOUDY   N/A N/A N/A MISG      29.83R
WILKERSON PASS LGT SNOW   9   0  66 N20G36    29.72F WCI -11
$$

COZ069>075-230400-
...SAN LUIS VALLEY/SANGRE DE CRISTO MOUNTAINS...

CITY           SKY/WX    TMP DP  RH WIND       PRES   REMARKS
ALAMOSA        PTCLDY    25  13  60 N9        29.76R WCI  15
LA VETA PASS   FOG       18  16  93 N3        29.75R VSB 3/4
SAGUACHE       MOCLDY    23  14  68 NW13      29.78S WCI  11
$$

COZ035-036-038>040-230400-
...NORTHERN COLORADO FRONT RANGE...

CITY           SKY/WX    TMP DP  RH WIND       PRES   REMARKS
DENVER INTL AP MOCLDY    26  19  74 N14       29.81R WCI  14
DMNS CITY PARK   N/A     30  19  62 N6G13     29.83R WCI  24
AURORA         MOCLDY    28  19  71 N13G18    29.82R WCI  17
FRONT RANGE AP NOT AVBL
ERIE MUNI ARPT   N/A     32  18  55 NE14      29.82R WCI  22
BOULDER MUN AP MOCLDY    32  18  55 NE5       29.82R WCI  27
CENTENNIAL     MOCLDY    26  24  92 E3        29.81R
BROOMFIELD     MOCLDY    30  21  69 NE3       29.82R
FORT COLLINS   PTCLDY    32  16  51 NW28      29.83S WCI  18
LONGMONT       PTCLDY    34  15  45 NE9       29.84R WCI  27
$$

COZ041-046-047-076>085-087-088-230400-
...PIKES PEAK/PALMER DIVIDE AND SOUTHERN FOOTHILLS...

CITY           SKY/WX    TMP DP  RH WIND       PRES   REMARKS
COLO. SPRINGS  CLOUDY    27  22  81 NW16      29.79F WCI  15
A. F. ACADEMY  MOCLDY    21  19  93 N14       29.79S WCI   8
ELLICOTT       NOT AVBL
FALCON         CLOUDY    23  18  80 N8        29.78S WCI  14
FORT CARSON    CLOUDY    28  23  82 N13       29.78S WCI  17
LIMON          CLOUDY    28  21  75 NW20      29.78R WCI  15
MONUMENT HILL  CLOUDY    21  19  93 N6        29.79R WCI  14
TRINIDAD       SNOW      28  26  92 N14G24    29.81R VSB 1/2 WCI  17
$$

COZ042>045-048>051-090-091-230400-
...NORTHEAST COLORADO...

CITY           SKY/WX    TMP DP  RH WIND       PRES   REMARKS
GREELEY ARPT   PTCLDY    30  18  59 NW12      29.80S WCI  21
AKRON          PTCLDY    29  21  72 NW18      29.75R WCI  16
BURLINGTON     MOCLDY    32  25  75 NW15      29.72R WCI  22
WRAY           CLEAR     34  26  71 W22G29    29.70S WCI  22
STERLING       PTCLDY    32  28  86 NW22      29.73S WCI  19
HOLYOKE        CLEAR     36  27  69 NW21G29   29.68R
FORT MORGAN    PTCLDY    27  20  77 W12       29.79R WCI  16
$$

COZ086-089-092>099-230400-
...SOUTHEAST COLORADO...

CITY           SKY/WX    TMP DP  RH WIND       PRES   REMARKS
PUEBLO         CLOUDY    32  27  81 NW8       29.83R WCI  25
LA JUNTA       CLOUDY    34  29  82 W12       29.80R WCI  25
LAMAR          CLOUDY    34  30  85 W9        29.78R WCI  27
SPRINGFIELD      N/A     33  30  88 NW15      29.77R WCI  23
$$


USA.gov is the U.S. government's official web portal to all federal, state and local government web resources and services.